Location: *
(28.3744°N, 81.5492°W)
Time: 03:09:43
(UTC+00:00)

Okean 3 Rocket - Pass Details

Date: 15 June 2025
Orbit: 611 x 638 km, 82.5° (Epoch: 11 July)

Event Time Altitude Azimuth Distance (km) Brightness Sun altitude
Rises 01:15:00 0° 354° (N) 2,938 7.7 -10.4°
Reaches altitude 10° 01:17:15 10° 354° (N) 2,028 6.8 -10.8°
Maximum altitude 01:21:46 89° 264° (W) 642 3.6 -11.6°
Drops below altitude 10° 01:26:15 10° 176° (S) 2,014 5.8 -12.4°
Enters shadow 01:27:09 - 176° (S) 2,382 6.2 -12.6°
